Regional Weather Roundup
Issued by NWS Goodland, KS

Home | Current Version | Previous Version | Text Only | Print | Product List | Glossary On
Versions: 1 2 3 4 5 6 7 8 9 10 11 12 13 14 15 16 17 18 19 20 21 22 23 24 25 26 27 28 29 30 31 32 33 34 35 36 37 38 39 40 41 42 43 44 45 46 47 48 49 50
000
ASUS43 KGLD 300308
RWRGLD

GOODLAND FORECAST AREA HOURLY WEATHER ROUNDUP
NATIONAL WEATHER SERVICE GOODLAND KS
900 PM MDT SUN MAR 29 2015

...OFFICIAL OBSERVATIONS...

CITY           SKY/WX    TMP DP  RH WIND       PRES   REMARKS
GOODLAND KS    CLEAR     42  20  41 SE6       30.20R
HILL CITY KS   CLEAR     41  16  36 CALM      30.19R
IMPERIAL NEB   CLEAR     46  17  31 S6        30.16S
MCCOOK NEB     CLEAR     49  17  28 SE6       30.17R
AKRON CO       PTCLDY    47  22  37 SE10      30.17S
BURLINGTON CO  CLEAR     42  18  37 SE9       30.21R
LIMON CO       CLEAR     42  24  49 SE7       30.22R
$$

...UNOFFICIAL OBSERVATIONS...

CITY           SKY/WX    TMP DP  RH WIND       PRES   REMARKS
COLBY KS       CLEAR     46  25  42 SE3       30.20S
GOVE KS          N/A     42  32  68 MISG        N/A
LENORA KS        N/A     52  32  46 MISG        N/A
NORTON KS      CLEAR     45   7  21 CALM      30.18R
SHARON SPRINGS   N/A     46  22  39 SE6         N/A
TRIBUNE KS     CLEAR     48  28  46 S3        30.24R
KIT CARSON CO    N/A     44  22  41 MISG        N/A
YUMA CO          N/A     46  21  36 S9          N/A
$$



USA.gov is the U.S. government's official web portal to all federal, state and local government web resources and services.